Location: Newark
(43.0000°N, 1.6781°W)
Time: 20:05:10
(UTC+00:00)

SO-50 - Pass Details

Date: 07 December 2022
Orbit: 584 x 695 km, 64.6° (Epoch: 05 February)

Event Time Altitude Azimuth Distance (km) Brightness Sun altitude
Exits shadow 04:56:24 - 189° (S) 2,331 ? -26.2°
Reaches altitude 10° 04:57:04 10° 186° (S) 2,088 ? -26.1°
Maximum altitude 05:01:32 42° 117° (ESE) 975 ? -25.3°
Drops below altitude 10° 05:06:08 10° 47° (NE) 2,149 ? -24.4°
Sets 05:08:36 0° 41° (NE) 3,076 ? -24.0°
